Regional Weather Roundup
Issued by NWS

Home | Current Version | Previous Version | Graphics & Text | Print | Product List | Glossary Off
Versions: 1 2 3 4 5 6 7 8 9 10 11 12 13 14 15 16 17 18 19 20 21 22 23 24 25 26 27 28 29 30 31 32 33 34 35 36 37 38 39 40 41 42 43 44 45 46 47 48 49 50

000
ASUS43 KMKX 251820
RWRWI

WISCONSIN REGIONAL WEATHER ROUNDUP
NATIONAL WEATHER SERVICE MILWAUKEE/SULLIVAN WI
100 PM CDT THU MAY 25 2017

NOTE: "FAIR" INDICATES FEW OR NO CLOUDS BELOW 12,000 FEET WITH NO
SIGNIFICANT WEATHER AND/OR OBSTRUCTIONS TO VISIBILITY.

WIZ001-002-006>008-014>016-023>028-251900-
NORTHWEST WISCONSIN

CITY           SKY/WX    TMP DP  RH WIND       PRES   REMARKS
SUPERIOR ARPT  NOT AVBL
ASHLAND        SUNNY     60  47  61 N12       29.73S
6HR MIN TEMP:  42; 6HR MAX TEMP:  61;

HAYWARD        MOSUNNY   67  48  50 SE10      29.69F
6HR MIN TEMP:  51; 6HR MAX TEMP:  68;

SIREN          MOSUNNY   67  46  47 S10G16    29.68F
6HR MIN TEMP:  46; 6HR MAX TEMP:  67;

CUMBERLAND     MOSUNNY   64  46  52 SE3       29.69S
RICE LAKE      SUNNY     65  47  50 SE7       29.70F
6HR MIN TEMP:  53; 6HR MAX TEMP:  66;

CHETEK         MOSUNNY   67  51  57 SE9       29.69S
6HR MIN TEMP:  53; 6HR MAX TEMP:  67;

LADYSMITH      MOSUNNY   68  50  51 E7        29.71S
6HR MIN TEMP:  52; 6HR MAX TEMP:  69;

EAU CLAIRE     MOSUNNY   69  51  52 SE8       29.67F
6HR MIN TEMP:  53; 6HR MAX TEMP:  69;

MENOMONIE      SUNNY     68  50  53 E3        29.69S
6HR MIN TEMP:  49; 6HR MAX TEMP:  68; 6HR PCP:  0.01;

NEW RICHMOND   PTSUNNY   65  48  55 SE7       29.68F
6HR MIN TEMP:  46; 6HR MAX TEMP:  65;

OSCEOLA        MOSUNNY   66  50  55 SE8       29.71S
6HR MIN TEMP:  49; 6HR MAX TEMP:  66;

$$

WIZ003>005-009-010-017-018-251900-
NORTH CENTRAL WISCONSIN

CITY           SKY/WX    TMP DP  RH WIND       PRES   REMARKS
MANITOWISH WTR PTSUNNY   65  46  50 SE5       29.70F
6HR MIN TEMP:  49; 6HR MAX TEMP:  67;

ARBOR VITAE    MOSUNNY   70  48  45 SE8       29.70S
6HR MIN TEMP:  49; 6HR MAX TEMP:  71;

WOODRUFF       MOSUNNY   70  48  45 SE8       29.70S
6HR MIN TEMP:  49; 6HR MAX TEMP:  71;

RHINELANDER    MOSUNNY   69  48  47 CALM      29.70F
6HR MIN TEMP:  50; 6HR MAX TEMP:  71;

EAGLE RIVER    MOSUNNY   70  44  39 E8        29.69F
6HR MIN TEMP:  49; 6HR MAX TEMP:  70;

LAND O LAKES   CLOUDY    68  45  43 NE5       29.72S
6HR MIN TEMP:  48; 6HR MAX TEMP:  69;

PHILLIPS       CLOUDY    66  50  55 S5        29.69F
6HR MIN TEMP:  49; 6HR MAX TEMP:  67;

TOMAHAWK       MOSUNNY   67  47  49 E3        29.70S
6HR MIN TEMP:  48; 6HR MAX TEMP:  69;

MEDFORD        PTSUNNY   67  49  52 E8        29.69S
6HR MIN TEMP:  47; 6HR MAX TEMP:  67;

MERRILL        PTSUNNY   69  50  49 S5        29.69S
6HR MIN TEMP:  49; 6HR MAX TEMP:  70;

$$

WIZ029-030-035-036-043>047-251900-
CENTRAL WISCONSIN

CITY           SKY/WX    TMP DP  RH WIND       PRES   REMARKS
WAUSAU         MOSUNNY   67  51  56 E7        29.67S
6HR MIN TEMP:  51; 6HR MAX TEMP:  69;

MOSINEE        MOSUNNY   66  52  59 E5        29.69F
MARSHFIELD     PTSUNNY   67  52  58 SE8       29.67F
6HR MIN TEMP:  50; 6HR MAX TEMP:  68;

STEVENS POINT  PTSUNNY   67  48  51 NE6       29.69S
6HR MIN TEMP:  47; 6HR MAX TEMP:  68;

WAUPACA        CLOUDY    72  51  48 NE6G16    29.68S
6HR MIN TEMP:  51; 6HR MAX TEMP:  72;

WAUTOMA        MOSUNNY   69  51  52 NE8       29.68S
6HR MIN TEMP:  51; 6HR MAX TEMP:  70;

WISC RAPIDS    MOSUNNY   70  52  52 VRB7      29.68F
6HR MIN TEMP:  52; 6HR MAX TEMP:  71;

CAMP DOUGLAS   PTSUNNY   68  54  60 SE5       29.68
$$

WIZ011>013-019>022-031-037>040-048>050-251900-
NORTHEAST WISCONSIN

CITY           SKY/WX    TMP DP  RH WIND       PRES   REMARKS
ANTIGO         PTSUNNY   67  52  57 E8G17     29.69S
6HR MIN TEMP:  49; 6HR MAX TEMP:  67;

SHAWANO        SUNNY     70  53  55 E13       29.68F
6HR MIN TEMP:  53; 6HR MAX TEMP:  70;

OCONTO         SUNNY     66  53  62 NE8       29.67F
6HR MIN TEMP:  51; 6HR MAX TEMP:  66;

STURGEON BAY   MOSUNNY   61  51  70 N16       29.68S
6HR MIN TEMP:  54; 6HR MAX TEMP:  62;

GREEN BAY      SUNNY     64  55  72 NE14      29.68F
6HR MIN TEMP:  51; 6HR MAX TEMP:  64;

MANITOWOC      SUNNY     64  53  67 N13G18    29.66F
6HR MIN TEMP:  51; 6HR MAX TEMP:  64;

APPLETON       PTSUNNY   66  48  52 NE15G21   29.66S
CLINTONVILLE   MOSUNNY   68  50  52 E13       29.67S
OSHKOSH        SUNNY     65  54  67 NE10      29.67S
6HR MIN TEMP:  51; 6HR MAX TEMP:  65;

$$

WIZ032>034-041-042-053>061-251900-
SOUTHWEST WISCONSIN

CITY           SKY/WX    TMP DP  RH WIND       PRES   REMARKS
LA CROSSE      SUNNY     66  54  65 NW6       29.68F
6HR MIN TEMP:  50; 6HR MAX TEMP:  66;

SPARTA         PTSUNNY   66  53  63 CALM      29.69S
6HR MIN TEMP:  49; 6HR MAX TEMP:  67;

VIROQUA        CLOUDY    63  54  71 MISG      29.70R
6HR MIN TEMP:  51; 6HR MAX TEMP:  63;

BOSCOBEL       SUNNY     68  54  60 VRB5      29.69S
6HR MIN TEMP:  56; 6HR MAX TEMP:  69;

PRAIRIE DU CHI SUNNY     64  51  63 W5        29.70R
6HR MIN TEMP:  53; 6HR MAX TEMP:  64;

PLATTEVILLE    PTSUNNY   61  55  81 NW5       29.70S
6HR MIN TEMP:  53; 6HR MAX TEMP:  61;

$$

WIZ056-057-062-063-064-067-068-251900-
SOUTH CENTRAL WISCONSIN

CITY           SKY/WX    TMP DP  RH WIND       PRES   REMARKS
REEDSBURG      MOSUNNY   65  54  67 N3        29.68F
6HR MIN TEMP:  51; 6HR MAX TEMP:  66;

BARABOO/DELLS  PTSUNNY   68  53  58 E8        29.68F
6HR MIN TEMP:  52; 6HR MAX TEMP:  68;

LONE ROCK      SUNNY     66  54  65 VRB3      29.68F
6HR MIN TEMP:  54; 6HR MAX TEMP:  66;

MINERAL POINT  PTSUNNY   63  55  77 CALM      29.70F
MADISON        MOSUNNY   66  54  65 VRB5      29.67F
6HR MIN TEMP:  52; 6HR MAX TEMP:  66;

MIDDLETON      MOSUNNY   66  55  68 E7        29.69S
6HR MIN TEMP:  54; 6HR MAX TEMP:  66;

WATERTOWN      PTSUNNY   63  55  74 N8        29.67R
6HR MIN TEMP:  52; 6HR MAX TEMP:  63;

MONROE         MOSUNNY   63  52  67 N6        29.68F
JANESVILLE     PTSUNNY   63  54  72 N13       29.68R
$$

WIZ051-052-058>065-066-070>072-251900-
SOUTHEAST WISCONSIN

CITY           SKY/WX    TMP DP  RH WIND       PRES   REMARKS
MILWAUKEE      MOSUNNY   64  53  67 N13       29.65S
6HR MIN TEMP:  55; 6HR MAX TEMP:  64;

WAUKESHA       CLOUDY    63  52  67 NW10      29.66S
MILWAUKEE/TIMM PTSUNNY   66  52  59 N12       29.65S
RACINE         MOSUNNY   62  52  69 N17       29.66S
6HR MIN TEMP:  51; 6HR MAX TEMP:  62;

KENOSHA        MOSUNNY   66  55  67 N12G22    29.64S
6HR MIN TEMP:  54; 6HR MAX TEMP:  67;

FOND DU LAC    SUNNY     65  53  65 NE12      29.67F
6HR MIN TEMP:  52; 6HR MAX TEMP:  65;

SHEBOYGAN      SUNNY     66  55  67 NE17G23   29.65S
6HR MIN TEMP:  52; 6HR MAX TEMP:  66;

WEST BEND      PTSUNNY   64  54  68 NE12G18   29.65S
JUNEAU         MOSUNNY   63  55  74 N8        29.69R
6HR MIN TEMP:  51; 6HR MAX TEMP:  63;

$$

LSZ147-162-251900-
LAKE SUPERIOR

STATION/POSITION TIME  TEMP    WIND        PRES    WAVE
                       AIR SEA DIR/SP/G            HT/PER
                 (UTC) (F)     (DEG/KT/KT) (MB)    (FT/S)
$$

LMZ867-665-643>646-251900-
LAKE MICHIGAN

STATION/POSITION TIME  TEMP    WIND        PRES    WAVE
                       AIR SEA DIR/SP/G            HT/PER
                 (UTC) (F)     (DEG/KT/KT) (MB)    (FT/S)
$$

TC  - TEMPERATURE IN CELSIUS
VSB - VISIBILITY IN STATUTE MILES
WCI - WIND CHILL INDEX
HX  - HEAT INDEX




USA.gov is the U.S. government's official web portal to all federal, state and local government web resources and services.